Location: ???? ?????????
(31.1304°N, 31.7111°E)
Time: 10:39:33
(UTC+00:00)

S-56A Canister/Altair - All Passes

Search period start: 01 March 2021 00:00
Search period end: 11 March 2021 00:00
Orbit: 632 x 2501 km, 38.9° (Epoch: 28 February)

Date Brightness Start Highest point End Pass type
(mag) Time Alt. Az. Time Alt. Az. Time Alt. Az.
01 Mar - 08:48:48 10° S 08:57:07 22° SE 09:06:47 10° E daylight
01 Mar - 10:48:54 10° SW 11:01:43 63° SE 11:16:37 10° ENE daylight
01 Mar - 12:54:11 10° WSW 13:08:52 75° NNW 13:23:24 10° ENE daylight
01 Mar - 15:02:13 10° WNW 15:17:22 63° N 15:29:47 10° E daylight
01 Mar - 17:10:32 10° WNW 17:25:03 83° NNE 17:35:14 10° ESE visible
01 Mar - 19:18:48 10° WNW 19:30:03 42° SW 19:37:53 10° SSE visible
02 Mar - 08:17:19 10° SSE 08:24:07 17° SE 08:31:53 10° E daylight
02 Mar - 10:16:09 10° SW 10:28:15 57° SE 10:42:54 10° ENE daylight
02 Mar - 12:20:48 10° WSW 12:35:03 79° NNW 12:50:00 10° ENE daylight
02 Mar - 14:28:26 10° W 14:43:33 63° N 14:56:37 10° E daylight
02 Mar - 16:36:40 10° WNW 16:51:36 79° NNE 17:02:27 10° ESE visible
02 Mar - 18:44:48 10° WNW 18:57:08 49° SW 19:05:40 10° SSE visible
03 Mar - 07:46:35 10° SSE 07:51:11 13° ESE 07:56:15 10° E daylight
03 Mar - 09:43:32 10° SSW 09:54:54 51° SE 10:09:06 10° ENE daylight
03 Mar - 11:47:32 10° WSW 12:01:17 83° NNW 12:16:31 10° ENE daylight
03 Mar - 13:54:44 10° W 14:09:42 63° N 14:23:23 10° ENE daylight
03 Mar - 16:02:51 10° WNW 16:18:02 75° NNE 16:29:35 10° ESE visible
03 Mar - 18:10:50 10° WNW 18:24:06 57° SW 18:33:20 10° SE visible
03 Mar - 20:22:33 10° W 20:27:10 13° WSW 20:31:11 10° SSW visible
04 Mar - 09:11:04 10° SSW 09:21:38 45° SE 09:35:10 10° ENE daylight
04 Mar - 11:14:24 10° WSW 11:27:34 87° NNW 11:42:57 10° ENE daylight
04 Mar - 13:21:08 10° W 13:35:49 64° N 13:50:02 10° ENE daylight
04 Mar - 15:29:03 10° WNW 15:44:22 72° NNE 15:56:36 10° E daylight
04 Mar - 17:36:55 10° WNW 17:50:56 64° SW 18:00:54 10° SE visible
04 Mar - 19:47:19 10° W 19:54:28 18° SW 20:00:17 10° SSW visible
05 Mar - 08:38:45 10° SSW 08:48:29 39° SE 09:01:09 10° ENE daylight
05 Mar - 10:41:24 10° WSW 10:53:55 88° SSE 11:09:19 10° ENE daylight
05 Mar - 12:47:38 10° W 13:01:56 65° N 13:16:35 10° ENE daylight
05 Mar - 14:55:19 10° WNW 15:10:38 70° NNE 15:23:30 10° E daylight
05 Mar - 17:03:03 10° WNW 17:17:40 71° SW 17:28:20 10° SE visible
05 Mar - 19:12:38 10° W 19:21:41 23° SW 19:28:48 10° S visible
06 Mar - 08:06:35 10° S 08:15:26 33° SE 08:27:00 10° ENE daylight
06 Mar - 10:08:31 10° SW 10:20:21 82° SSE 10:35:36 10° ENE daylight
06 Mar - 12:14:14 10° W 12:28:04 67° N 12:43:03 10° ENE daylight
06 Mar - 14:21:40 10° WNW 14:36:50 68° NNE 14:50:18 10° E daylight
06 Mar - 16:29:13 10° WNW 16:44:16 78° SSW 16:55:39 10° SE visible
06 Mar - 18:38:12 10° WNW 18:48:48 29° SW 18:57:00 10° S visible
07 Mar - 07:34:37 10° S 07:42:30 27° SE 07:52:42 10° ENE daylight
07 Mar - 09:35:45 10° SW 09:46:53 76° SSE 10:01:49 10° ENE daylight
07 Mar - 11:40:57 10° W 11:54:13 68° NNW 12:09:27 10° ENE daylight
07 Mar - 13:48:05 10° WNW 14:02:59 66° N 14:16:59 10° E daylight
07 Mar - 15:55:28 10° WNW 16:10:46 84° SSW 16:22:51 10° ESE visible
07 Mar - 18:03:57 10° WNW 18:15:50 34° SW 18:24:58 10° SSE visible
08 Mar - 07:02:53 10° S 07:09:40 22° SE 07:18:13 10° E daylight
08 Mar - 09:03:07 10° SW 09:13:32 69° SE 09:27:59 10° ENE daylight
08 Mar - 11:07:47 10° W 11:20:26 70° NNW 11:35:45 10° ENE daylight
08 Mar - 13:14:35 10° WNW 13:29:06 65° N 13:43:33 10° E daylight
08 Mar - 15:21:46 10° WNW 15:37:11 89° SSW 15:49:56 10° ESE daylight
08 Mar - 17:29:50 10° WNW 17:42:45 40° SW 17:52:45 10° SSE visible
09 Mar - 06:31:30 10° SSE 06:36:54 17° SE 06:43:26 10° E daylight
09 Mar - 08:30:35 10° SW 08:40:18 62° SE 08:54:05 10° ENE daylight
09 Mar - 10:34:44 10° WSW 10:46:43 73° NNW 11:02:00 10° ENE daylight
09 Mar - 12:41:11 10° WNW 12:55:13 64° N 13:10:01 10° E daylight
09 Mar - 14:48:10 10° WNW 15:03:31 86° NNE 15:16:53 10° ESE daylight
09 Mar - 16:55:50 10° WNW 17:09:35 46° SW 17:20:23 10° SSE visible
09 Mar - 19:12:15 10° WSW 19:13:01 10° WSW 19:13:46 10° SW visible
10 Mar - 06:00:54 10° SE 06:04:13 12° ESE 06:07:57 10° ESE daylight
10 Mar - 07:58:10 10° SW 08:07:11 55° SE 08:20:10 10° ENE daylight
10 Mar - 10:01:47 10° WSW 10:13:06 76° NNW 10:28:11 10° ENE daylight
10 Mar - 12:07:52 10° WNW 12:21:21 63° N 12:36:23 10° E daylight
10 Mar - 14:14:37 10° WNW 14:29:46 82° NNE 14:43:43 10° ESE daylight
10 Mar - 16:21:56 10° WNW 16:36:17 52° SW 16:47:53 10° SSE visible
10 Mar - 18:34:13 10° W 18:40:08 14° WSW 18:45:25 10° SSW visible
